Skip Page Navigation
NASA JPL Caltech
NASA Logo - Jet Propulsion Laboratory + View the NASA Portal
+ Center for Near-Earth Object Studies
JPL Home Earth Solar System Stars & Galaxies Technology
JPL Solar System Dynamics
BODIES ORBITS EPHEMERIDES TOOLS PHYSICAL DATA DISCOVERY FAQ SITE MAP
IMPORTANT: The SSD Announcement email list is now available. Major changes are coming in the near future, including possible hostname and/or URL changes. To be notified of such changes, subscribe to this email list.

Please visit this page for more details.


JPL Small-Body Database Browser
Search: [ help ]  
437841 (1998 HD14)
Classification: Aten [NEO, PHA]          SPK-ID: 2437841
Ephemeris | Orbit Diagram | Orbital Elements | Mission Design | Physical Parameters | Discovery Circumstances | Close-Approach Data ]

[ show orbit diagram ]
Orbital Elements at Epoch 2458600.5 (2019-Apr-27.0) TDB
Reference: JPL 53 (heliocentric ecliptic J2000)
 Element Value Uncertainty (1-sigma)   Units 
e .3125700490784327 5.8728e-08  
a .9631229031169187 7.2418e-09 au
q .6620795300211009 5.7508e-08 au
i 7.809313753465541 3.7585e-06 deg
node 183.8311473845955 5.7538e-05 deg
peri 260.8165399178312 4.1649e-05 deg
M 168.9762930206181 4.1192e-05 deg
tp 2458438.451778004905
(2018-Nov-15.95177800)
3.9283e-05 TDB
period 345.2399083646364
0.95
3.8938e-06
1.066e-08
d
yr
n 1.04275314434325 1.1761e-08 deg/d
Q 1.264166276212737 9.5054e-09 au

Additional Model Parameters
 Parameter Value Uncertainty (1-sigma) 
A2 [EST] -4.9028292966006E-14 1.044E-14
ALN [SET] 1. n/a
NK [SET] 0. n/a
NM [SET] 2. n/a
R0 [SET] 1. n/a
  Orbit Determination Parameters
   # obs. used (total)      207  
   data-arc span      7735 days (21.18 yr)  
   first obs. used      1998-04-25  
   last obs. used      2019-06-29  
   planetary ephem.      DE431  
   SB-pert. ephem.      SB431-N16  
   condition code      0  
   norm. resid. RMS      .45977  
   source      ORB  
   producer      Otto Matic  
   solution date      2019-Jul-01 06:03:27  

Additional Information
 Earth MOID = .0339785 au 
 Jupiter MOID = 3.94958 au 
 T_jup = 6.212 
 Nongravitational accels. using nonstandard g(r) = (1 au/ r)^2 
[ show covariance matrix ]

Ephemeris | Orbit Diagram | Orbital Elements | Mission Design | Physical Parameters | Discovery Circumstances | Close-Approach Data ]

Physical Parameter Table
Parameter Symbol Value Units Sigma Reference Notes
absolute magnitude H 21.0   n/a MPO413509  

437841 (1998 HD14)          Discovered 1998-Apr-25 by NEAT at Haleakala
Reference: Last Updated: 2015-07-06

[ show close-approach data ]
Ephemeris | Orbit Diagram | Orbital Elements | Mission Design | Physical Parameters | Discovery Circumstances | Close-Approach Data ]
ABOUT SSD CREDITS/AWARDS PRIVACY/COPYRIGHT GLOSSARY LINKS
FirstGov 2019-Dec-05 15:17 UT
(server date/time)  
NASA Home Page
Site Manager:   Ryan S. Park
Webmaster  Alan B. Chamberlin